PROGRESS-MS 05

Last updated on Thu Jul 20 2017 01:15:06 GMT+0100 (British Summer Time)

1 42056U 17010A 17200.53580868 .00002699 00000-0 47931-4 0 9993 2 42056 51.6411 237.0740 0006096 50.6741 101.3213 15.54187590 66787
UTC large
Height (km)
Speed (km/s)
/
Latitude / Longitude
Inclination (degrees)
Orbital Period (minutes)
Azimuth
Elevation
Range (km)
Doppler Factor

Next 0 passes for location: London (51.5072 / 0.1276)

Sorry there are no passes over London.